Lid_Strength_Index
12 11 10 11 12 12 14 14 16 15 16 15 14 14 14 14 13 13 13 12 12 13 13 12 13 12 12 11 10 9 9 9 8 6 5 4 3 4 5 5 6 6 5 4
12 9 11 13 11 12 13 14 14 14 15 12 12 12 14 13 13 13 13 12 12 12 12 12 12 13 12 12 11 9 9 8 7 6 4 3 3 4 5 6 5 5 5 9
14 11 11 15 13 12 13 13 13 16 14 12 12 12 12 12 12 11 10 10 10 10 10 10 10 10 12 12 11 10 9 7 5 4 5 2 3 4 5 5 5 8 10 11
15 13 19 12 9 9 12 12 12 13 12 11 11 11 11 11 11 11 10 11 11 10 11 10 9 10 10 10 10 8 8 8 8 4 4 2 4 4 5 5 8 11 13 13
16 17 14 11 10 11 12 13 10 11 11 10 11 11 12 10 10 10 10 10 10 9 9 9 9 9 9 10 9 8 7 8 8 8 2 3 5 7 9 9 10 11 12 12
14 18 19 13 9 7 8 14 9 10 12 12 12 16 15 11 11 10 10 10 10 8 8 9 9 9 10 10 11 10 8 6 7 9 10 11 8 9 10 10 11 11 11 10
15 17 13 9 8 7 16 16 10 10 11 12 14 13 12 10 11 10 10 9 8 9 8 8 8 8 10 10 11 9 7 7 8 8 10 10 10 11 11 11 10 11 11 10
14 16 18 7 8 15 12 10 9 9 10 10 10 10 10 10 10 10 9 8 8 9 9 8 7 8 9 10 8 8 7 8 9 9 10 11 10 10 10 10 11 10 10 10
12 13 7 7 9 8 7 8 8 9 7 8 8 8 8 9 10 9 9 8 7 9 8 7 6 8 9 8 8 8 8 8 9 9 10 12 12 11 11 10 11 11 10 9
11 9 8 7 7 6 6 7 6 6 7 7 9 8 8 8 8 8 7 7 7 7 9 8 7 7 7 7 8 8 9 8 8 9 9 10 11 11 12 12 11 12 11 12
10 8 7 6 6 6 5 5 6 6 6 7 7 8 8 8 7 7 7 6 6 7 7 8 7 7 7 7 8 9 10 9 9 8 9 11 11 11 12 12 12 12 12 13
13 8 8 8 5 4 6 6 6 6 6 6 6 7 7 7 7 7 7 7 7 6 6 6 6 6 5 5 6 9 9 10 10 11 10 10 11 12 12 12 12 12 12 12
8 6 6 4 4 4 5 5 5 5 6 7 6 5 5 6 7 5 6 6 7 7 6 6 6 7 5 4 5 6 8 7 8 9 10 10 10 10 12 10 9 9 9 10
5 5 6 5 5 5 4 3 3 4 5 5 5 5 5 6 6 6 6 7 6 6 6 6 6 7 6 5 5 7 8 6 7 8 8 8 8 9 8 9 10 10 9 9
5 5 5 4 4 4 4 4 5 5 4 5 5 5 5 6 6 6 5 5 5 6 5 5 5 6 5 5 5 7 8 8 8 8 8 8 8 9 8 9 9 9 9 9
4 4 4 4 5 4 4 5 5 6 5 5 5 4 4 4 5 5 5 5 6 7 6 6 6 5 5 5 6 7 7 7 7 8 8 9 8 9 9 9 9 9 10 11
5 6 6 5 4 4 4 4 4 5 5 5 4 4 4 4 4 5 5 5 5 5 5 6 6 5 4 5 6 7 7 7 9 8 8 9 8 9 9 9 9 9 11 11
4 4 3 4 4 4 3 3 3 3 4 4 2 3 4 4 5 4 4 4 5 5 5 5 5 5 5 5 6 5 8 8 8 9 8 9 9 9 9 9 10 10 9 10
3 4 3 3 3 3 3 3 3 3 2 2 3 4 3 4 4 3 3 4 5 6 5 5 4 5 6 5 5 6 7 8 9 9 9 10 10 9 9 10 9 9 9 9
3 3 3 3 2 3 3 2 2 2 2 3 3 3 3 3 3 3 4 5 5 5 4 4 5 5 5 5 6 7 7 8 9 9 8 9 11 11 11 10 10 10 10 10
3 3 3 3 3 2 2 2 2 3 2 2 3 4 4 3 2 2 4 4 4 4 3 3 5 6 6 7 6 7 7 8 9 9 10 8 8 9 10 10 11 10 9 9
3 3 3 3 3 3 2 2 2 2 2 2 2 2 3 3 3 2 2 3 1 6 4 4 5 7 6 9 6 6 7 8 9 9 10 9 8 9 10 11 11 10 10 10
3 3 3 3 3 3 2 2 2 2 3 3 3 3 4 4 3 4 5 2 2 4 5 3 8 9 8 6 6 6 7 7 8 9 10 9 8 8 12 12 12 11 11 10
3 3 3 2 2 3 3 2 2 2 2 2 2 3 3 4 3 2 2 4 6 5 4 6 6 8 8 4 4 5 6 7 8 9 9 9 11 11 12 12 12 11 10 10
2 2 2 3 3 3 3 2 3 3 2 3 2 2 2 2 3 2 1 1 5 5 3 8 8 8 5 4 3 4 7 8 9 9 9 11 10 12 11 12 12 11 11 10
3 3 3 2 2 2 3 3 4 3 2 3 3 2 2 1 1 2 1 3 2 4 2 3 4 5 3 3 4 5 7 8 8 9 10 10 11 11 11 12 12 11 11 10
3 5 3 2 2 3 3 3 2 4 4 3 3 2 2 2 1 2 4 1 2 2 2 2 3 3 3 4 5 6 7 8 9 9 9 8 11 11 13 11 11 11 11 11